RH
27 28 28 28 28 28 28 29 26 24 25 24 24 25 25 26 24 24 30 34 34 35 37 37 40 43 45 45 42 40 41 43 46 45 45 46 44 41 42 45 44 41 40 40 40 41 40 41 43 47 52 59 64 66 67 68 67 68 71 72 70 67 67 67 68 66 63 61 62 64 63 59 58 60 61 61 60 60 62 63 66 67 63 58 54 49 44
29 29 29 28 29 29 30 31 30 28 28 27 28 30 30 29 27 27 30 34 35 37 39 40 42 44 44 42 40 41 44 46 47 46 46 46 44 42 44 47 45 42 39 39 39 38 37 40 42 42 45 51 58 61 62 63 64 65 68 71 69 67 68 69 70 70 69 68 67 68 68 66 65 66 65 65 64 62 64 67 68 69 66 59 51 46 43
32 30 30 29 29 30 30 29 30 30 30 29 29 31 31 31 30 30 32 34 36 39 42 44 44 44 44 42 42 44 47 48 47 46 46 46 44 42 45 46 44 40 37 36 37 35 34 37 41 41 43 47 53 57 58 60 62 62 64 66 66 64 65 66 68 69 71 71 71 71 71 69 70 70 69 70 70 66 67 70 70 69 67 58 48 44 42
36 31 30 31 29 28 28 28 28 31 31 30 30 31 32 32 32 32 34 34 36 41 45 46 46 45 45 45 45 47 49 49 46 45 47 46 43 43 44 43 40 37 35 36 36 33 31 33 36 38 41 45 49 52 54 57 60 60 61 64 64 63 65 66 65 65 67 70 72 74 74 71 71 72 71 73 74 72 71 71 71 71 66 56 48 44 40
38 34 33 33 30 28 30 30 29 31 32 32 32 32 34 34 32 31 32 33 38 44 45 45 47 47 47 46 46 47 50 48 46 45 46 44 43 43 42 39 36 35 35 35 34 32 31 31 33 35 39 43 45 48 50 52 54 55 58 61 60 61 65 67 68 68 69 71 75 77 77 74 73 74 74 75 76 74 72 72 72 70 62 52 46 42 35
36 37 35 33 33 34 34 33 31 32 32 33 34 35 36 37 35 34 35 38 42 45 44 45 48 47 45 45 45 48 50 47 44 45 44 42 42 40 39 36 34 33 33 32 30 28 30 32 34 36 38 41 43 44 45 47 49 52 56 57 56 57 60 64 68 70 72 74 75 77 78 78 77 77 77 76 76 75 75 72 70 65 56 48 44 37 32
37 40 39 36 38 39 36 35 35 34 34 35 37 37 38 38 37 38 41 44 45 45 44 45 46 44 43 44 47 49 48 45 43 43 42 41 40 39 38 36 34 33 32 30 27 26 27 30 35 38 39 41 42 42 43 44 47 51 53 53 53 54 57 61 67 72 75 77 77 77 78 80 79 78 78 77 76 77 76 71 66 58 49 44 39 33 29
37 39 40 39 39 39 37 37 37 35 34 34 33 35 37 37 37 39 42 44 46 46 46 46 45 44 45 47 49 49 46 45 44 42 41 41 41 40 39 37 34 33 33 30 29 28 28 29 33 37 40 41 41 41 42 42 45 48 50 51 52 55 58 64 70 75 77 76 76 77 78 80 80 80 79 78 77 76 72 66 61 53 44 40 35 30 24
41 42 42 41 40 39 38 39 38 36 35 33 32 36 39 39 40 42 44 46 47 47 48 46 46 45 47 49 50 48 46 45 45 43 42 42 43 42 40 37 35 33 32 30 29 29 30 29 31 35 39 41 42 43 44 45 46 47 49 50 54 59 65 70 74 77 77 76 78 79 79 81 80 79 78 77 75 70 66 62 56 46 39 36 31 24 19
44 45 44 43 43 42 39 38 38 36 34 33 35 39 41 41 41 44 46 48 47 48 48 47 46 46 48 49 49 47 45 45 43 42 42 43 44 42 40 39 36 34 31 31 30 30 31 31 33 36 39 41 42 45 47 48 47 47 48 52 58 67 74 77 76 75 75 78 81 82 81 80 78 78 76 72 67 64 62 57 48 39 36 32 25 19 16
43 43 44 46 46 42 39 38 37 36 35 34 36 38 40 42 43 44 47 49 48 48 48 45 44 45 47 50 49 46 45 44 42 42 43 43 43 42 41 41 39 34 31 31 32 32 32 34 36 38 40 42 44 47 49 48 47 47 49 55 63 73 79 78 75 72 74 78 81 80 78 76 74 73 70 65 62 61 56 47 40 36 34 27 20 17 16
45 45 45 46 44 39 39 40 39 38 36 35 38 41 41 40 43 46 48 50 49 48 47 44 43 44 46 48 47 45 44 41 40 42 42 42 42 42 43 43 40 34 30 30 32 33 32 35 38 40 42 44 46 48 47 46 47 47 51 60 70 77 79 77 74 73 73 74 73 71 70 70 69 67 65 62 60 53 42 35 36 34 28 21 18 18 17
46 48 44 43 43 41 40 41 40 38 37 38 43 45 40 38 43 46 46 47 47 46 43 42 42 42 43 44 45 44 42 40 40 42 41 41 42 43 43 43 41 37 32 30 33 34 34 35 37 40 42 44 46 48 47 45 44 44 51 64 74 75 74 73 73 72 69 65 63 62 62 64 65 65 62 54 46 36 29 27 29 27 22 19 19 18 17
46 51 46 42 42 40 38 40 40 37 38 42 44 42 38 38 43 45 44 45 45 42 41 40 40 41 42 44 45 43 41 41 43 43 43 43 44 44 45 45 43 40 37 35 35 35 35 36 36 37 38 40 42 46 47 46 44 42 50 66 74 71 69 69 70 68 65 62 61 61 60 61 61 58 51 40 31 27 26 24 23 21 20 19 18 18 19
47 50 46 40 39 38 36 37 38 37 39 41 41 41 41 43 44 44 43 44 43 42 41 40 40 41 42 43 43 42 42 43 44 44 45 46 46 46 45 44 44 43 40 38 38 36 36 36 36 36 36 36 38 42 46 48 46 42 50 65 73 70 67 67 66 64 63 63 63 61 61 61 58 50 40 32 28 27 27 25 23 22 20 17 17 18 20
45 44 41 38 37 37 34 34 36 37 37 36 38 42 44 44 43 42 42 43 44 41 40 39 40 41 41 41 40 40 40 41 41 42 44 45 45 43 41 41 43 44 42 40 39 38 37 37 36 36 36 37 37 39 46 51 48 42 47 62 71 70 66 64 64 63 62 63 63 61 62 62 56 45 36 31 29 28 28 27 24 22 20 18 18 19 19
42 41 40 37 35 34 32 31 32 34 33 34 38 42 43 43 42 40 40 41 41 39 39 39 40 40 40 39 38 38 38 40 39 39 39 39 39 38 38 39 41 43 43 42 40 38 37 37 37 37 37 38 38 39 45 52 50 44 48 59 67 69 65 62 61 62 62 63 64 64 65 63 53 42 34 30 29 29 30 27 25 22 20 19 19 18 18
40 36 35 35 35 36 35 33 32 33 34 37 41 43 43 43 42 42 41 40 40 38 39 41 41 41 40 39 39 40 40 40 37 34 32 34 37 38 39 38 38 39 39 37 37 37 37 37 37 38 38 38 38 38 41 47 50 49 49 53 59 64 64 60 58 60 61 61 64 66 67 62 52 42 35 30 29 31 30 27 25 23 20 19 19 18 18
37 34 35 38 40 41 42 40 38 38 39 41 43 45 44 43 43 43 41 41 40 40 41 43 43 41 40 40 42 42 40 36 33 31 32 36 40 41 41 39 38 35 33 31 31 32 33 34 35 37 38 38 37 35 36 40 47 50 48 46 49 56 60 59 58 60 61 61 63 66 65 59 52 46 39 33 31 32 31 27 24 22 20 19 18 17 18
36 34 38 41 41 42 43 44 43 42 43 44 45 44 43 43 44 43 41 42 43 42 42 44 44 42 42 42 42 40 36 32 33 35 36 38 40 40 40 39 36 33 31 30 31 31 31 32 33 34 36 35 35 35 35 36 41 47 50 51 52 55 58 59 59 60 61 60 59 61 60 56 52 50 46 39 36 35 33 30 27 23 19 15 12 11 14
35 35 38 40 39 40 43 44 45 44 44 44 44 43 42 43 43 42 41 42 44 44 43 43 43 44 45 43 40 37 34 33 35 37 36 36 36 36 37 36 35 33 31 31 32 32 33 34 35 35 34 33 33 35 35 32 34 41 48 55 58 60 62 64 63 62 61 60 58 59 61 60 57 54 51 46 41 39 37 35 31 25 17 12 9 8 11
39 40 41 39 39 41 44 43 43 43 43 44 44 44 44 44 43 44 43 44 45 46 45 45 45 47 47 43 39 36 35 35 34 34 34 34 33 33 34 34 33 33 32 31 31 31 33 35 35 36 35 35 35 36 34 31 32 39 44 49 56 63 67 68 67 64 61 61 60 61 65 67 64 59 54 50 46 43 41 39 33 24 16 13 10 9 10
43 42 40 39 39 43 44 43 42 42 42 43 44 45 46 46 46 46 47 47 47 48 49 49 49 49 47 43 40 39 38 36 34 33 33 33 32 33 33 31 31 31 31 30 30 30 31 31 32 34 35 36 37 37 35 31 33 40 46 47 51 59 65 66 66 65 63 62 61 61 65 68 66 60 56 52 50 47 45 40 32 23 16 13 9 7 8
42 40 40 40 41 42 44 43 43 43 43 43 44 46 48 47 47 47 47 48 49 50 52 52 50 47 46 44 43 42 40 38 37 35 33 32 32 33 31 28 27 27 28 27 27 27 27 26 26 30 33 35 35 36 35 32 33 40 47 48 49 55 62 64 65 66 66 66 64 63 65 65 62 58 54 52 52 50 45 37 30 23 17 13 8 6 7
41 41 42 41 41 43 44 43 42 44 44 44 44 47 49 49 49 48 48 49 50 51 52 50 47 45 45 45 45 44 42 41 39 37 34 32 33 31 28 25 24 24 24 24 24 23 22 21 23 27 31 33 33 33 32 33 36 41 46 48 50 54 59 61 63 65 66 67 68 68 69 67 64 59 55 53 52 51 44 35 29 24 18 12 8 6 8
42 42 42 42 42 42 43 44 43 44 45 45 46 47 50 51 51 50 50 51 52 52 49 46 45 45 45 44 44 43 42 41 40 38 35 32 29 27 25 25 24 23 22 22 22 21 21 22 24 28 30 32 32 31 30 32 37 43 47 50 52 55 58 59 61 63 66 67 69 72 73 73 69 62 55 51 51 51 45 35 30 26 19 12 9 8 9
43 42 42 44 45 45 44 44 44 44 45 46 46 47 49 51 52 51 50 50 51 50 46 45 45 44 42 41 41 41 40 40 39 37 33 28 26 26 27 26 24 23 22 22 22 21 22 25 28 31 32 33 33 31 31 32 37 43 47 49 53 57 59 59 60 63 65 68 71 74 74 73 71 66 58 51 50 50 46 37 31 27 21 14 10 9 10
44 43 42 43 46 47 45 44 43 44 45 46 46 47 49 49 49 48 48 49 50 49 46 45 45 43 41 39 39 39 39 39 37 33 28 26 27 28 28 25 24 23 22 22 22 23 24 28 31 33 34 34 34 33 31 32 36 40 44 47 51 55 57 58 60 62 64 66 70 73 75 76 76 73 65 55 48 48 47 41 34 29 24 17 13 10 11
44 43 42 42 44 45 43 42 43 44 46 46 46 47 47 47 47 46 47 49 49 48 46 45 44 42 40 39 38 38 38 37 33 28 26 27 27 27 26 25 24 22 22 22 24 25 26 29 31 33 33 33 33 32 31 31 33 35 39 44 48 51 52 53 56 58 61 63 66 69 72 74 75 73 68 58 49 46 48 45 38 32 27 22 17 13 12
43 43 41 41 42 42 41 40 42 44 45 46 46 45 45 46 46 46 46 46 46 46 46 45 44 42 41 40 39 39 36 33 29 26 26 27 27 27 27 25 22 20 22 24 26 26 27 29 31 32 33 32 30 30 30 31 31 32 34 37 42 46 49 51 53 54 56 58 60 62 64 66 68 69 67 60 51 46 47 48 42 35 30 26 21 16 15
41 41 39 39 40 41 40 39 40 41 43 45 46 45 44 44 45 45 45 44 44 44 45 44 44 43 43 41 39 37 33 31 28 25 25 26 27 28 27 25 21 22 25 27 28 29 29 29 30 31 32 30 27 26 26 28 29 31 31 33 36 42 47 51 52 52 53 53 54 56 57 60 63 65 65 62 54 47 47 49 46 39 32 28 23 19 18
39 39 39 39 40 41 40 40 41 41 43 45 47 47 46 46 46 46 46 46 45 45 45 45 46 45 44 40 37 34 32 29 27 24 23 25 28 29 27 25 24 26 29 30 30 30 30 29 30 29 29 28 27 25 25 25 27 30 31 32 34 39 45 49 50 49 49 50 51 53 54 57 59 60 62 62 58 50 47 49 48 43 36 30 25 21 19
37 38 40 41 42 42 43 42 42 44 46 47 48 49 50 50 50 50 49 49 48 47 47 47 46 45 42 38 34 32 31 29 25 24 24 26 27 28 27 26 26 29 31 31 31 30 29 29 29 28 28 27 27 26 26 25 27 28 30 32 34 37 40 45 49 49 48 48 50 52 54 56 57 58 59 61 59 54 48 47 48 46 41 34 27 23 20
34 36 38 40 41 41 41 41 43 45 47 48 49 50 50 50 50 50 50 50 50 50 49 47 45 42 39 36 34 33 31 28 25 24 25 27 27 28 28 28 29 31 31 30 31 30 30 30 29 29 28 28 27 27 27 26 27 29 30 31 34 36 38 40 45 48 50 50 51 52 53 54 55 57 59 60 59 56 50 47 47 47 44 38 31 25 22
35 34 36 37 37 36 37 39 42 45 46 47 48 49 49 50 51 51 51 51 50 49 47 45 43 40 37 36 35 33 30 27 24 25 27 28 29 29 29 29 30 30 30 29 30 31 32 32 31 30 29 28 28 28 28 27 27 29 30 32 33 36 38 39 41 45 49 51 52 52 52 53 54 56 59 59 59 57 53 48 46 47 46 43 36 28 23
35 34 34 34 34 34 35 39 43 45 46 47 49 49 50 51 52 52 51 49 47 46 45 44 42 41 39 37 35 31 28 26 25 28 30 30 30 30 30 30 29 28 28 29 31 32 33 33 32 30 29 29 29 29 30 29 29 29 30 32 33 35 37 39 40 42 46 50 52 52 52 52 53 55 58 59 59 59 57 53 48 46 46 46 41 34 26
34 33 33 33 33 35 37 41 45 45 47 49 51 52 52 52 51 51 49 47 45 44 44 42 41 40 38 36 33 30 28 27 28 31 32 32 31 31 31 31 29 29 30 31 32 32 32 31 29 28 28 29 29 30 31 32 32 32 32 32 34 35 37 38 40 42 44 47 50 52 53 53 52 54 57 60 61 60 59 56 52 48 47 46 45 40 31
33 33 34 34 35 36 40 43 44 45 46 49 51 53 53 52 52 52 50 47 45 44 42 40 39 38 36 34 32 31 29 29 31 33 34 33 33 33 33 32 32 32 33 34 33 31 29 27 27 27 27 27 29 30 30 31 32 33 34 34 35 36 37 38 39 42 44 46 47 49 52 54 53 53 55 60 63 63 61 59 57 54 49 47 46 45 38
35 34 34 35 35 37 39 41 42 43 44 47 50 51 51 51 51 50 47 44 42 41 39 38 38 37 35 34 34 33 32 32 33 34 34 34 35 35 34 35 35 35 34 33 31 28 27 27 27 27 28 28 28 28 29 29 30 31 33 35 36 37 38 38 38 39 42 45 45 46 49 55 61 61 59 58 61 63 64 62 60 57 54 49 46 46 44
37 36 36 36 36 37 38 39 40 40 41 43 46 49 49 48 46 44 41 39 38 38 37 37 36 36 36 37 37 36 35 35 35 35 35 35 35 36 37 37 37 35 32 31 29 28 29 29 29 30 30 30 29 28 28 28 27 28 29 31 33 36 38 39 39 39 39 40 42 42 44 52 63 68 66 62 60 61 64 65 63 60 57 53 48 47 46
38 38 38 38 39 38 39 40 41 42 42 43 44 45 45 43 42 40 38 37 37 38 38 38 38 40 41 41 40 39 38 37 36 35 35 35 37 37 38 37 36 33 31 31 31 31 31 32 32 32 32 31 30 29 28 27 26 25 25 26 28 31 34 37 40 41 39 38 38 39 40 45 52 58 63 66 65 63 64 66 66 63 60 56 52 48 47
41 41 41 41 42 41 42 43 44 44 45 45 44 44 44 43 42 42 41 41 41 42 41 42 45 46 47 45 44 42 40 38 36 36 36 36 38 39 38 38 37 35 33 33 33 33 34 34 34 33 32 32 31 30 28 26 25 24 23 23 24 25 28 31 35 39 40 39 38 37 38 39 42 46 52 60 65 68 69 69 67 66 63 60 56 52 48
42 43 44 44 44 44 44 45 46 46 46 46 45 45 45 45 45 45 46 46 45 45 45 46 48 49 49 48 46 43 40 38 37 37 37 38 40 41 40 39 40 39 38 37 35 35 35 35 35 34 34 33 32 30 28 26 25 24 22 21 20 21 22 25 28 32 37 40 40 39 38 38 39 42 44 48 55 64 70 70 69 68 67 62 58 54 51
45 47 47 47 46 46 46 46 46 46 45 46 46 47 47 48 48 49 49 49 49 49 49 48 49 49 48 47 44 42 39 37 36 37 38 40 43 43 41 40 42 42 42 42 40 39 37 37 37 36 34 33 32 30 28 26 25 23 21 19 18 18 19 21 23 26 30 35 39 42 41 40 40 42 43 45 48 53 59 65 69 71 70 67 62 58 54
47 47 47 47 47 46 45 44 42 41 41 42 43 46 47 49 51 51 51 51 51 50 49 48 47 45 44 42 42 41 39 36 36 39 41 42 43 42 42 42 44 45 45 45 44 42 40 39 37 36 35 33 31 29 27 26 25 23 20 18 17 17 18 20 21 22 25 28 33 38 41 42 42 41 42 44 47 47 49 54 62 67 70 70 67 61 57
47 47 49 49 47 43 40 38 37 37 38 38 39 42 45 48 50 51 51 50 49 48 48 48 46 43 42 43 42 40 39 38 40 42 43 42 42 43 44 46 47 48 48 47 46 43 41 38 36 35 33 32 30 29 27 26 25 22 19 18 17 17 18 20 21 22 23 25 28 32 36 40 43 43 42 41 44 45 45 48 55 63 69 74 72 66 61
46 48 50 48 42 39 37 38 39 39 39 39 40 42 43 45 46 46 46 46 47 48 48 48 47 45 44 43 41 40 40 42 44 45 44 43 44 46 47 48 49 49 47 46 44 42 40 38 36 34 33 31 29 28 26 25 24 22 20 18 17 17 18 21 22 22 23 24 25 28 31 35 39 43 44 42 42 43 43 46 52 58 65 73 75 69 61
46 46 46 43 40 39 41 43 43 43 43 43 43 44 46 49 50 51 52 54 54 53 51 49 47 44 42 41 42 44 46 46 45 45 45 46 48 49 49 50 50 48 46 44 41 40 38 37 35 34 32 30 28 27 26 26 25 23 21 20 19 18 19 22 23 23 24 24 24 26 29 31 34 38 42 44 44 44 43 44 47 50 57 67 75 73 65
47 46 44 44 45 47 48 48 48 48 47 46 45 47 50 53 56 57 58 58 56 51 48 45 43 43 43 46 48 49 49 47 46 47 49 49 50 51 50 49 48 46 45 43 41 39 38 37 36 34 32 30 28 27 27 28 27 25 23 22 20 19 20 22 25 26 26 26 26 25 26 28 31 34 38 41 44 45 45 44 45 46 50 58 68 73 69
48 48 47 48 49 51 51 49 48 48 47 46 45 45 46 47 49 50 50 49 47 45 44 44 46 48 50 50 49 49 48 48 48 49 50 50 50 50 49 47 46 45 43 42 41 39 39 38 36 34 32 30 29 28 29 29 29 28 26 22 20 18 19 21 23 25 26 26 26 25 25 25 28 31 34 38 40 43 45 46 46 45 46 49 56 64 69
51 50 49 49 50 51 51 49 48 48 48 48 48 48 47 47 47 45 44 45 45 46 48 51 54 54 52 50 49 49 50 50 50 50 50 50 51 50 48 48 47 45 44 43 42 41 40 39 37 35 32 30 29 28 29 29 29 29 26 23 20 18 19 20 22 23 23 23 23 24 24 23 24 26 30 34 37 40 43 45 46 46 45 44 47 57 66
54 53 51 51 51 52 53 52 51 51 51 52 53 54 53 51 49 48 48 50 52 52 53 55 56 54 52 52 52 52 52 52 52 53 52 52 51 50 49 47 47 46 46 45 44 42 41 40 38 34 31 30 28 28 28 28 28 27 25 22 19 18 19 20 21 22 23 23 22 22 23 23 23 23 24 28 33 37 40 43 45 47 46 43 43 49 58